EZY376 LMML-LFSB

Flight info

Callsign EZY376
Flight time 2h 9m
Altitude 36000
Route GZO M622 SOPIR DCT PIVOP DCT GIANO DCT BETOT DCT POKAV DCT PODOX DCT SPEZI DCT PUNSA DCT LUMEL
Aircraft A321/M-SDE3FGHIRWY/LB1

Departure

Time 2026-05-06 14:26
Airport Malta International Airport (LMML)

Arrival

Time 2026-05-06 16:36
Airport EuroAirport Basel–Mulhouse–Freiburg (LFSB)
Time Latitude Longitude Altitude Speed Heading
2026-05-06 14:10 35.84717 14.49427 253 ft 0 kts 43°
2026-05-06 14:15 35.84716 14.49427 253 ft 0 kts 43°
2026-05-06 14:19 35.84724 14.49435 253 ft 2 kts 43°
2026-05-06 14:20 35.84740 14.49454 253 ft 5 kts 43°
2026-05-06 14:20 35.84779 14.49460 253 ft 6 kts 338°
2026-05-06 14:20 35.84817 14.49419 253 ft 8 kts 314°
2026-05-06 14:20 35.84863 14.49362 253 ft 11 kts 315°
2026-05-06 14:21 35.84918 14.49290 254 ft 12 kts 311°
2026-05-06 14:21 35.84932 14.49192 255 ft 12 kts 237°
2026-05-06 14:21 35.84916 14.49108 255 ft 11 kts 299°
2026-05-06 14:21 35.84953 14.49017 255 ft 13 kts 303°
2026-05-06 14:22 35.84991 14.48911 256 ft 14 kts 287°
2026-05-06 14:22 35.85016 14.48792 257 ft 15 kts 284°
2026-05-06 14:22 35.85049 14.48645 259 ft 20 kts 295°
2026-05-06 14:22 35.85147 14.48517 260 ft 20 kts 322°
2026-05-06 14:23 35.85241 14.48400 261 ft 19 kts 311°
2026-05-06 14:23 35.85326 14.48280 261 ft 18 kts 314°
2026-05-06 14:23 35.85411 14.48174 261 ft 17 kts 314°
2026-05-06 14:23 35.85468 14.48108 261 ft 17 kts 323°
2026-05-06 14:24 35.85594 14.48044 263 ft 15 kts 347°
2026-05-06 14:24 35.85673 14.47989 263 ft 11 kts 283°
2026-05-06 14:24 35.85656 14.47942 264 ft 9 kts 232°
2026-05-06 14:24 35.85607 14.47935 264 ft 7 kts 161°
2026-05-06 14:25 35.85583 14.47961 263 ft 0 kts 134°
2026-05-06 14:25 35.85581 14.47962 263 ft 2 kts 134°
2026-05-06 14:25 35.85468 14.48103 261 ft 59 kts 135°
2026-05-06 14:25 35.84983 14.48703 259 ft 137 kts 135°
2026-05-06 14:26 35.84179 14.49707 389 ft 183 kts 132°
2026-05-06 14:26 35.83215 14.50845 884 ft 203 kts 139°
2026-05-06 14:26 35.81967 14.51769 1536 ft 212 kts 160°
2026-05-06 14:26 35.80509 14.51934 2304 ft 215 kts 187°
2026-05-06 14:27 35.79110 14.51211 2954 ft 227 kts 213°
2026-05-06 14:27 35.78069 14.49690 3656 ft 239 kts 239°
2026-05-06 14:27 35.77525 14.47714 4300 ft 251 kts 249°
2026-05-06 14:27 35.77042 14.45544 4668 ft 269 kts 251°
2026-05-06 14:28 35.76564 14.43205 4847 ft 298 kts 252°
2026-05-06 14:28 35.76069 14.40597 4959 ft 326 kts 254°
2026-05-06 14:28 35.75736 14.37793 5650 ft 334 kts 268°
2026-05-06 14:28 35.76213 14.34984 6536 ft 341 kts 290°
2026-05-06 14:29 35.77556 14.32562 7324 ft 347 kts 314°
2026-05-06 14:29 35.79572 14.30916 8131 ft 351 kts 335°
2026-05-06 14:29 35.81866 14.29888 9005 ft 349 kts 340°
2026-05-06 14:29 35.84138 14.29079 10294 ft 331 kts 343°
2026-05-06 14:30 35.86391 14.28337 10819 ft 344 kts 342°
2026-05-06 14:30 35.88739 14.27486 11254 ft 354 kts 340°
2026-05-06 14:30 35.91087 14.26528 11881 ft 358 kts 338°
2026-05-06 14:30 35.93405 14.25495 12520 ft 360 kts 337°
2026-05-06 14:31 35.95752 14.24392 13217 ft 362 kts 336°
2026-05-06 14:31 35.98111 14.23255 13892 ft 365 kts 335°
2026-05-06 14:31 36.00473 14.22108 14484 ft 368 kts 336°
2026-05-06 14:31 36.02819 14.20952 15056 ft 370 kts 333°
2026-05-06 14:32 36.05080 14.19368 15646 ft 370 kts 321°
2026-05-06 14:32 36.07166 14.17503 16244 ft 373 kts 321°
2026-05-06 14:32 36.09285 14.15613 16824 ft 376 kts 321°
2026-05-06 14:32 36.11420 14.13719 17405 ft 379 kts 321°
2026-05-06 14:33 36.13579 14.11807 17980 ft 382 kts 321°
2026-05-06 14:33 36.15785 14.09851 18518 ft 386 kts 321°
2026-05-06 14:33 36.17938 14.07941 19010 ft 388 kts 321°
2026-05-06 14:33 36.20140 14.05992 19520 ft 389 kts 321°
2026-05-06 14:34 36.22383 14.04008 20024 ft 391 kts 321°
2026-05-06 14:34 36.24494 14.02141 20514 ft 392 kts 321°
2026-05-06 14:34 36.26607 14.00262 20986 ft 394 kts 321°
2026-05-06 14:34 36.28845 13.98267 21475 ft 396 kts 321°
2026-05-06 14:35 36.31088 13.96268 21977 ft 397 kts 321°
2026-05-06 14:35 36.33363 13.94240 22471 ft 399 kts 321°
2026-05-06 14:35 36.35597 13.92246 22938 ft 401 kts 321°
2026-05-06 14:35 36.37868 13.90222 23415 ft 403 kts 321°
2026-05-06 14:36 36.40159 13.88177 23818 ft 405 kts 321°
2026-05-06 14:36 36.42453 13.86128 24195 ft 407 kts 321°
2026-05-06 14:36 36.44753 13.84070 24568 ft 409 kts 321°
2026-05-06 14:36 36.47065 13.81996 24940 ft 411 kts 320°
2026-05-06 14:37 36.49399 13.79919 25312 ft 413 kts 323°
2026-05-06 14:37 36.51931 13.78182 25682 ft 419 kts 330°
2026-05-06 14:37 36.54565 13.76602 26054 ft 420 kts 330°
2026-05-06 14:37 36.57201 13.75014 26412 ft 422 kts 329°
2026-05-06 14:38 36.59853 13.73410 26759 ft 424 kts 329°
2026-05-06 14:38 36.62516 13.71798 27113 ft 426 kts 329°
2026-05-06 14:38 36.65183 13.70185 27453 ft 428 kts 329°
2026-05-06 14:38 36.67865 13.68565 27791 ft 430 kts 329°
2026-05-06 14:39 36.70573 13.66928 28108 ft 432 kts 329°
2026-05-06 14:39 36.73283 13.65285 28442 ft 434 kts 329°
2026-05-06 14:39 36.75990 13.63639 28753 ft 436 kts 329°
2026-05-06 14:39 36.78733 13.61965 29065 ft 438 kts 329°
2026-05-06 14:40 36.81475 13.60291 29360 ft 440 kts 329°
2026-05-06 14:40 36.84197 13.58631 29647 ft 442 kts 329°
2026-05-06 14:40 36.86978 13.56938 29935 ft 444 kts 329°
2026-05-06 14:40 36.89761 13.55245 30197 ft 446 kts 329°
2026-05-06 14:41 36.92552 13.53546 30444 ft 448 kts 329°
2026-05-06 14:41 36.95354 13.51837 30694 ft 449 kts 329°
2026-05-06 14:41 36.98177 13.50112 31012 ft 450 kts 328°
2026-05-06 14:41 37.00985 13.48395 31384 ft 448 kts 328°
2026-05-06 14:42 37.03788 13.46678 31749 ft 448 kts 328°
2026-05-06 14:42 37.06579 13.44964 32106 ft 447 kts 328°
2026-05-06 14:42 37.09378 13.43246 32456 ft 446 kts 328°
2026-05-06 14:42 37.12170 13.41534 32813 ft 446 kts 328°
2026-05-06 14:43 37.14954 13.39824 33171 ft 445 kts 328°
2026-05-06 14:43 37.17699 13.38136 33527 ft 445 kts 328°
2026-05-06 14:43 37.20508 13.36409 33876 ft 444 kts 327°
2026-05-06 14:43 37.23277 13.34706 34200 ft 443 kts 327°
2026-05-06 14:44 37.26050 13.33000 34526 ft 442 kts 327°
2026-05-06 14:44 37.28804 13.31305 34862 ft 440 kts 327°
2026-05-06 14:44 37.31544 13.29616 35209 ft 438 kts 327°
2026-05-06 14:45 37.37001 13.26243 35872 ft 435 kts 327°
2026-05-06 14:45 37.39679 13.24584 35974 ft 433 kts 327°
2026-05-06 14:45 37.42369 13.22916 35998 ft 430 kts 327°
2026-05-06 14:46 37.47713 13.19595 36001 ft 428 kts 327°
2026-05-06 14:46 37.53141 13.16428 35983 ft 431 kts 330°
2026-05-06 14:47 37.58703 13.13579 35995 ft 432 kts 332°
2026-05-06 14:47 37.64287 13.10744 35993 ft 432 kts 331°
2026-05-06 14:48 37.69824 13.07842 35992 ft 432 kts 330°
2026-05-06 14:48 37.75350 13.04896 35995 ft 432 kts 330°
2026-05-06 14:49 37.80903 13.01931 36006 ft 432 kts 330°
2026-05-06 14:49 37.86453 12.98978 35995 ft 433 kts 330°
2026-05-06 14:50 37.92019 12.96022 35996 ft 433 kts 330°
2026-05-06 14:50 37.97563 12.93069 35993 ft 434 kts 330°
2026-05-06 14:51 38.03131 12.90095 35996 ft 434 kts 330°
2026-05-06 14:51 38.08698 12.87117 36006 ft 434 kts 330°
2026-05-06 14:52 38.14273 12.84126 36003 ft 435 kts 330°
2026-05-06 14:52 38.19848 12.81137 35998 ft 435 kts 330°
2026-05-06 14:53 38.25430 12.78136 35999 ft 435 kts 330°
2026-05-06 14:53 38.31008 12.75133 35998 ft 435 kts 330°
2026-05-06 14:54 38.36553 12.72135 35993 ft 435 kts 329°
2026-05-06 14:54 38.42133 12.69121 35992 ft 435 kts 329°
2026-05-06 14:55 38.47706 12.66113 35991 ft 435 kts 329°
2026-05-06 14:55 38.53269 12.63099 35994 ft 435 kts 329°
2026-05-06 14:56 38.58851 12.60065 35998 ft 434 kts 329°
2026-05-06 14:56 38.64421 12.57041 35996 ft 434 kts 329°
2026-05-06 14:57 38.69988 12.54013 35996 ft 434 kts 329°
2026-05-06 14:57 38.75550 12.50979 36000 ft 435 kts 329°
2026-05-06 14:58 38.81113 12.47929 36001 ft 435 kts 329°
2026-05-06 14:58 38.86676 12.44880 35985 ft 435 kts 329°
2026-05-06 14:59 38.92263 12.41885 35987 ft 436 kts 330°
2026-05-06 14:59 38.97896 12.38957 35987 ft 436 kts 331°
2026-05-06 15:00 39.03530 12.36023 35990 ft 436 kts 330°
2026-05-06 15:00 39.08206 12.33561 35994 ft 437 kts 330°
2026-05-06 15:01 39.13832 12.30570 35998 ft 437 kts 330°
2026-05-06 15:01 39.19413 12.27595 35995 ft 437 kts 330°
2026-05-06 15:02 39.25083 12.24587 35995 ft 438 kts 330°
2026-05-06 15:02 39.30721 12.21585 35989 ft 438 kts 330°
2026-05-06 15:03 39.36400 12.18553 35990 ft 439 kts 330°
2026-05-06 15:03 39.42056 12.15539 35992 ft 439 kts 330°
2026-05-06 15:04 39.47724 12.12522 35986 ft 440 kts 330°
2026-05-06 15:04 39.53385 12.09487 35983 ft 440 kts 329°
2026-05-06 15:05 39.59055 12.06445 35984 ft 441 kts 329°
2026-05-06 15:05 39.64732 12.03384 35986 ft 442 kts 329°
2026-05-06 15:06 39.70421 12.00321 35985 ft 443 kts 329°
2026-05-06 15:06 39.76152 11.97234 35989 ft 443 kts 329°
2026-05-06 15:07 39.81884 11.94129 35989 ft 444 kts 329°
2026-05-06 15:07 39.87589 11.91037 35989 ft 444 kts 329°
2026-05-06 15:08 39.93302 11.87940 35993 ft 444 kts 329°
2026-05-06 15:08 39.99024 11.84825 35997 ft 444 kts 329°
2026-05-06 15:09 40.04721 11.81726 36000 ft 445 kts 329°
2026-05-06 15:09 40.10453 11.78605 36007 ft 445 kts 329°
2026-05-06 15:10 40.16190 11.75467 36007 ft 445 kts 329°
2026-05-06 15:10 40.21902 11.72339 36002 ft 445 kts 329°
2026-05-06 15:11 40.27631 11.69204 36001 ft 445 kts 329°
2026-05-06 15:11 40.33346 11.66063 35999 ft 445 kts 329°
2026-05-06 15:12 40.39099 11.62885 36000 ft 445 kts 329°
2026-05-06 15:12 40.44864 11.59875 35994 ft 447 kts 330°
2026-05-06 15:13 40.50695 11.56975 35990 ft 448 kts 330°
2026-05-06 15:13 40.56511 11.54060 35989 ft 447 kts 330°
2026-05-06 15:14 40.62322 11.51100 35988 ft 447 kts 330°
2026-05-06 15:14 40.68129 11.48121 35970 ft 448 kts 330°
2026-05-06 15:15 40.73938 11.45130 35976 ft 448 kts 330°
2026-05-06 15:15 40.79753 11.42141 35971 ft 448 kts 330°
2026-05-06 15:16 40.85599 11.39124 35975 ft 448 kts 329°
2026-05-06 15:16 40.91347 11.35947 35974 ft 447 kts 328°
2026-05-06 15:17 40.97052 11.32680 35975 ft 447 kts 328°
2026-05-06 15:17 41.02768 11.29424 35977 ft 448 kts 328°
2026-05-06 15:18 41.08518 11.26181 35977 ft 448 kts 328°
2026-05-06 15:18 41.14227 11.22978 35971 ft 449 kts 328°
2026-05-06 15:19 41.19989 11.19740 35966 ft 449 kts 328°
2026-05-06 15:19 41.25741 11.16487 35966 ft 449 kts 328°
2026-05-06 15:20 41.31506 11.13208 35967 ft 450 kts 328°
2026-05-06 15:20 41.37251 11.09936 35966 ft 450 kts 328°
2026-05-06 15:21 41.42978 11.06675 35966 ft 450 kts 328°
2026-05-06 15:21 41.48793 11.03357 35966 ft 451 kts 328°
2026-05-06 15:22 41.54561 11.00075 35949 ft 451 kts 328°
2026-05-06 15:22 41.60326 10.96772 35949 ft 451 kts 328°
2026-05-06 15:23 41.66103 10.93463 35951 ft 452 kts 328°
2026-05-06 15:23 41.70928 10.90687 35953 ft 452 kts 328°
2026-05-06 15:24 41.76729 10.87346 35959 ft 452 kts 328°
2026-05-06 15:24 41.82497 10.84017 35955 ft 452 kts 328°
2026-05-06 15:25 41.88280 10.80673 35955 ft 452 kts 328°
2026-05-06 15:25 41.94064 10.77321 35955 ft 452 kts 328°
2026-05-06 15:26 41.99845 10.73966 35954 ft 453 kts 328°
2026-05-06 15:26 42.05640 10.70604 35952 ft 453 kts 327°
2026-05-06 15:27 42.11398 10.67250 35944 ft 453 kts 327°
2026-05-06 15:27 42.17209 10.63852 35942 ft 453 kts 328°
2026-05-06 15:28 42.22988 10.60469 35942 ft 453 kts 328°
2026-05-06 15:28 42.28786 10.57068 35942 ft 453 kts 327°
2026-05-06 15:29 42.34454 10.53519 35944 ft 451 kts 326°
2026-05-06 15:29 42.40145 10.49786 35942 ft 451 kts 326°
2026-05-06 15:30 42.45763 10.46127 35943 ft 451 kts 326°
2026-05-06 15:30 42.51479 10.42466 35949 ft 452 kts 327°
2026-05-06 15:31 42.57147 10.38835 35947 ft 451 kts 327°
2026-05-06 15:31 42.62833 10.35174 35949 ft 451 kts 327°
2026-05-06 15:32 42.71348 10.29659 35944 ft 451 kts 327°
2026-05-06 15:32 42.77024 10.25980 35948 ft 452 kts 327°
2026-05-06 15:33 42.82689 10.22301 35949 ft 452 kts 327°
2026-05-06 15:33 42.88361 10.18606 35948 ft 452 kts 327°
2026-05-06 15:34 42.94025 10.14905 35931 ft 452 kts 327°
2026-05-06 15:34 42.99664 10.11221 35933 ft 452 kts 327°
2026-05-06 15:35 43.05236 10.07571 35936 ft 452 kts 327°
2026-05-06 15:35 43.11007 10.03786 35940 ft 453 kts 327°
2026-05-06 15:36 43.16721 10.00034 35940 ft 453 kts 326°
2026-05-06 15:36 43.22449 9.96260 35943 ft 453 kts 326°
2026-05-06 15:37 43.28031 9.92566 35941 ft 453 kts 326°
2026-05-06 15:37 43.33804 9.88738 35941 ft 453 kts 326°
2026-05-06 15:38 43.39485 9.84976 35936 ft 453 kts 326°
2026-05-06 15:38 43.45167 9.81203 35937 ft 453 kts 326°
2026-05-06 15:39 43.50812 9.77438 35931 ft 453 kts 326°
2026-05-06 15:39 43.56522 9.73617 35935 ft 453 kts 326°
2026-05-06 15:40 43.62197 9.69832 35935 ft 453 kts 326°
2026-05-06 15:40 43.67827 9.66058 35932 ft 453 kts 326°
2026-05-06 15:41 43.73506 9.62250 35933 ft 453 kts 326°
2026-05-06 15:41 43.79179 9.58437 35922 ft 453 kts 326°
2026-05-06 15:42 43.84895 9.54679 35913 ft 454 kts 327°
2026-05-06 15:42 43.90633 9.50956 35910 ft 454 kts 327°
2026-05-06 15:43 43.96333 9.47243 35902 ft 454 kts 327°
2026-05-06 15:43 44.02095 9.43456 35907 ft 454 kts 327°
2026-05-06 15:44 44.07784 9.39700 35913 ft 454 kts 327°
2026-05-06 15:44 44.13509 9.35923 35908 ft 455 kts 327°
2026-05-06 15:45 44.19218 9.32153 35911 ft 455 kts 327°
2026-05-06 15:45 44.24978 9.28330 35907 ft 455 kts 327°
2026-05-06 15:46 44.30706 9.24523 35900 ft 455 kts 327°
2026-05-06 15:46 44.36433 9.20715 35894 ft 455 kts 327°
2026-05-06 15:47 44.42095 9.16940 35890 ft 455 kts 326°
2026-05-06 15:47 44.47858 9.13093 35893 ft 456 kts 327°
2026-05-06 15:48 44.52607 9.09910 35883 ft 455 kts 327°
2026-05-06 15:48 44.58346 9.06052 35881 ft 456 kts 327°
2026-05-06 15:49 44.64069 9.02198 35873 ft 456 kts 327°
2026-05-06 15:49 44.69810 8.98334 35856 ft 456 kts 326°
2026-05-06 15:50 44.75513 8.94486 35835 ft 456 kts 326°
2026-05-06 15:50 44.81245 8.90593 35835 ft 456 kts 326°
2026-05-06 15:51 44.86969 8.86702 35826 ft 456 kts 326°
2026-05-06 15:51 44.92707 8.82793 35827 ft 456 kts 326°
2026-05-06 15:52 44.98265 8.79016 35811 ft 457 kts 326°
2026-05-06 15:52 45.04073 8.75050 35810 ft 457 kts 326°
2026-05-06 15:53 45.09840 8.71104 35816 ft 457 kts 326°
2026-05-06 15:53 45.15575 8.67169 35824 ft 458 kts 326°
2026-05-06 15:54 45.21287 8.63235 35916 ft 458 kts 326°
2026-05-06 15:54 45.27024 8.59280 35931 ft 458 kts 326°
2026-05-06 15:55 45.32807 8.55282 35927 ft 459 kts 326°
2026-05-06 15:55 45.38515 8.51327 35930 ft 459 kts 326°
2026-05-06 15:56 45.44204 8.47384 35922 ft 459 kts 326°
2026-05-06 15:56 45.50056 8.43314 35865 ft 459 kts 326°
2026-05-06 15:57 45.55777 8.39325 35872 ft 459 kts 326°
2026-05-06 15:57 45.61511 8.35321 35872 ft 458 kts 326°
2026-05-06 15:58 45.67241 8.31312 35869 ft 458 kts 326°
2026-05-06 15:58 45.72930 8.27308 35878 ft 458 kts 326°
2026-05-06 15:59 45.78664 8.23268 35890 ft 458 kts 326°
2026-05-06 15:59 45.84386 8.19228 35874 ft 458 kts 326°
2026-05-06 16:00 45.90086 8.15206 35881 ft 457 kts 327°
2026-05-06 16:00 45.95834 8.11139 35882 ft 458 kts 327°
2026-05-06 16:01 46.01556 8.07077 35891 ft 459 kts 327°
2026-05-06 16:01 46.07242 8.03025 35888 ft 458 kts 327°
2026-05-06 16:02 46.13076 7.99072 35702 ft 462 kts 330°
2026-05-06 16:02 46.16025 7.97213 35921 ft 461 kts 330°
2026-05-06 16:02 46.18977 7.95382 35921 ft 461 kts 330°
2026-05-06 16:03 46.24854 7.91706 35924 ft 461 kts 330°
2026-05-06 16:03 46.30722 7.87944 35933 ft 460 kts 330°
2026-05-06 16:04 46.36604 7.84132 35933 ft 461 kts 330°
2026-05-06 16:04 46.42414 7.80365 35933 ft 460 kts 330°
2026-05-06 16:05 46.48308 7.76533 35930 ft 461 kts 330°
2026-05-06 16:05 46.54164 7.72735 35929 ft 461 kts 330°
2026-05-06 16:06 46.60010 7.68932 35921 ft 461 kts 330°
2026-05-06 16:06 46.65871 7.65104 35920 ft 461 kts 330°
2026-05-06 16:07 46.71769 7.61242 35895 ft 461 kts 330°
2026-05-06 16:07 46.77642 7.57378 34802 ft 472 kts 330°
2026-05-06 16:08 46.80639 7.55393 33814 ft 482 kts 330°
2026-05-06 16:08 46.83662 7.53398 33208 ft 479 kts 330°
2026-05-06 16:08 46.84670 7.52734 33011 ft 478 kts 330°
2026-05-06 16:09 46.87433 7.50847 34544 ft 396 kts 328°
2026-05-06 16:09 46.89870 7.49121 34813 ft 395 kts 329°
2026-05-06 16:10 46.92465 7.47375 33786 ft 422 kts 330°
2026-05-06 16:10 46.95210 7.45606 32561 ft 439 kts 331°
2026-05-06 16:10 46.98062 7.43794 31337 ft 455 kts 332°
2026-05-06 16:10 47.01011 7.41910 30134 ft 469 kts 332°
2026-05-06 16:11 47.04035 7.39951 29100 ft 475 kts 332°
2026-05-06 16:11 47.07005 7.38006 28851 ft 463 kts 332°
2026-05-06 16:11 47.09953 7.36056 28308 ft 457 kts 332°
2026-05-06 16:11 47.11868 7.34780 27945 ft 453 kts 332°
2026-05-06 16:12 47.14733 7.32860 27394 ft 449 kts 332°
2026-05-06 16:12 47.17561 7.30958 26840 ft 444 kts 332°
2026-05-06 16:12 47.20355 7.29079 26312 ft 440 kts 332°
2026-05-06 16:12 47.23128 7.27216 25769 ft 435 kts 333°
2026-05-06 16:13 47.25577 7.25576 25296 ft 432 kts 333°
2026-05-06 16:13 47.28321 7.23741 24758 ft 428 kts 333°
2026-05-06 16:13 47.31016 7.21932 24250 ft 424 kts 333°
2026-05-06 16:13 47.33680 7.20138 23790 ft 419 kts 333°
2026-05-06 16:14 47.36364 7.18313 23132 ft 417 kts 331°
2026-05-06 16:14 47.38753 7.16075 22632 ft 406 kts 319°
2026-05-06 16:14 47.40757 7.13250 22153 ft 381 kts 307°
2026-05-06 16:14 47.42255 7.10126 21726 ft 358 kts 296°
2026-05-06 16:15 47.43316 7.06890 21317 ft 345 kts 291°
2026-05-06 16:15 47.44290 7.03674 21047 ft 338 kts 291°
2026-05-06 16:15 47.45238 7.00569 20923 ft 327 kts 291°
2026-05-06 16:15 47.46161 6.97552 20784 ft 316 kts 291°
2026-05-06 16:16 47.47202 6.94757 20627 ft 309 kts 306°
2026-05-06 16:16 47.48758 6.92595 20387 ft 307 kts 325°
2026-05-06 16:16 47.50726 6.91266 20008 ft 309 kts 341°
2026-05-06 16:16 47.52797 6.90397 19628 ft 309 kts 343°
2026-05-06 16:17 47.54895 6.89660 19239 ft 309 kts 346°
2026-05-06 16:17 47.57016 6.89076 18871 ft 309 kts 349°
2026-05-06 16:17 47.59201 6.88656 18530 ft 308 kts 352°
2026-05-06 16:17 47.61318 6.88416 18183 ft 307 kts 355°
2026-05-06 16:18 47.63442 6.88491 17819 ft 306 kts 12°
2026-05-06 16:18 47.65352 6.89757 17430 ft 305 kts 39°
2026-05-06 16:18 47.66690 6.92157 16967 ft 303 kts 67°
2026-05-06 16:18 47.67184 6.95134 16632 ft 295 kts 93°
2026-05-06 16:19 47.66804 6.98046 16309 ft 284 kts 118°
2026-05-06 16:19 47.65940 7.00721 16001 ft 285 kts 113°
2026-05-06 16:19 47.65504 7.03555 15691 ft 287 kts 99°
2026-05-06 16:19 47.65298 7.06541 15357 ft 287 kts 98°
2026-05-06 16:20 47.65128 7.09485 15061 ft 287 kts 97°
2026-05-06 16:20 47.64788 7.12340 14757 ft 282 kts 111°
2026-05-06 16:20 47.63982 7.14996 14408 ft 279 kts 126°
2026-05-06 16:20 47.62856 7.17324 14046 ft 278 kts 130°
2026-05-06 16:21 47.61709 7.19630 13694 ft 279 kts 129°
2026-05-06 16:21 47.60558 7.21950 13322 ft 278 kts 129°
2026-05-06 16:21 47.59399 7.24281 12961 ft 277 kts 130°
2026-05-06 16:21 47.58262 7.26568 12653 ft 275 kts 129°
2026-05-06 16:22 47.57127 7.28851 12310 ft 273 kts 129°
2026-05-06 16:22 47.56004 7.31111 11976 ft 272 kts 130°
2026-05-06 16:22 47.54883 7.33364 11620 ft 272 kts 130°
2026-05-06 16:22 47.53762 7.35609 11291 ft 271 kts 130°
2026-05-06 16:23 47.52634 7.37863 10986 ft 268 kts 130°
2026-05-06 16:23 47.51521 7.40088 10637 ft 268 kts 130°
2026-05-06 16:23 47.50413 7.42306 10272 ft 268 kts 130°
2026-05-06 16:23 47.49308 7.44515 9943 ft 267 kts 130°
2026-05-06 16:24 47.48204 7.46717 9640 ft 264 kts 130°
2026-05-06 16:24 47.47106 7.48904 9239 ft 264 kts 130°
2026-05-06 16:24 47.46022 7.51065 8875 ft 262 kts 130°
2026-05-06 16:24 47.44940 7.53217 8511 ft 261 kts 130°
2026-05-06 16:25 47.43864 7.55355 8156 ft 259 kts 130°
2026-05-06 16:25 47.42801 7.57473 7834 ft 257 kts 130°
2026-05-06 16:25 47.41730 7.59601 7498 ft 257 kts 130°
2026-05-06 16:25 47.40664 7.61721 7175 ft 256 kts 130°
2026-05-06 16:26 47.39602 7.63831 6918 ft 253 kts 130°
2026-05-06 16:26 47.38559 7.65896 6638 ft 251 kts 130°
2026-05-06 16:26 47.37520 7.67952 6322 ft 247 kts 130°
2026-05-06 16:26 47.36500 7.69990 6225 ft 243 kts 130°
2026-05-06 16:27 47.35511 7.71975 6174 ft 244 kts 130°
2026-05-06 16:27 47.34502 7.74001 6122 ft 244 kts 130°
2026-05-06 16:27 47.33483 7.76050 6060 ft 245 kts 130°
2026-05-06 16:27 47.32525 7.78116 6016 ft 247 kts 118°
2026-05-06 16:28 47.32316 7.80531 5976 ft 235 kts 77°
2026-05-06 16:28 47.33135 7.82414 5921 ft 210 kts 31°
2026-05-06 16:28 47.34420 7.82857 5837 ft 177 kts 339°
2026-05-06 16:28 47.35417 7.82036 5793 ft 160 kts 307°
2026-05-06 16:29 47.35987 7.80658 5766 ft 155 kts 288°
2026-05-06 16:29 47.36438 7.79195 5736 ft 166 kts 290°
2026-05-06 16:29 47.36971 7.77501 5721 ft 193 kts 291°
2026-05-06 16:29 47.37554 7.75675 5672 ft 199 kts 291°
2026-05-06 16:30 47.38150 7.73829 5652 ft 198 kts 291°
2026-05-06 16:30 47.38547 7.72607 5700 ft 200 kts 292°
2026-05-06 16:30 47.39351 7.70134 5713 ft 201 kts 291°
2026-05-06 16:30 47.39950 7.68290 5710 ft 200 kts 291°
2026-05-06 16:31 47.40610 7.66450 5652 ft 205 kts 301°
2026-05-06 16:31 47.41632 7.64991 5406 ft 210 kts 323°
2026-05-06 16:31 47.42952 7.64018 5112 ft 210 kts 330°
2026-05-06 16:31 47.44238 7.63142 4791 ft 195 kts 330°
2026-05-06 16:32 47.45413 7.62336 4527 ft 179 kts 329°
2026-05-06 16:32 47.46494 7.61590 4240 ft 164 kts 328°
2026-05-06 16:32 47.47502 7.60892 3976 ft 156 kts 328°
2026-05-06 16:32 47.48468 7.60222 3731 ft 152 kts 328°
2026-05-06 16:33 47.49417 7.59563 3502 ft 150 kts 328°
2026-05-06 16:33 47.50361 7.58909 3270 ft 149 kts 328°
2026-05-06 16:33 47.51303 7.58256 3029 ft 150 kts 329°
2026-05-06 16:34 47.53175 7.56958 2567 ft 148 kts 329°
2026-05-06 16:34 47.53804 7.56521 2403 ft 151 kts 331°
2026-05-06 16:34 47.54740 7.55873 2148 ft 149 kts 332°
2026-05-06 16:34 47.55688 7.55215 1898 ft 148 kts 332°
2026-05-06 16:35 47.56622 7.54567 1656 ft 148 kts 334°
2026-05-06 16:35 47.57552 7.53921 1421 ft 148 kts 335°
2026-05-06 16:35 47.58477 7.53278 1194 ft 147 kts 335°
2026-05-06 16:35 47.59402 7.52635 967 ft 147 kts 334°
2026-05-06 16:36 47.60275 7.52023 889 ft 114 kts 336°
2026-05-06 16:36 47.60733 7.51708 883 ft 40 kts 334°
2026-05-06 16:36 47.60963 7.51555 881 ft 33 kts 336°
2026-05-06 16:36 47.61070 7.51544 877 ft 11 kts 24°